"Time","Value","Approval","myLocation"
"2023-04-21 00:00",7.49171028552903,"Approved","OW291"
"2023-04-21 01:00",7.48171943058707,"Approved","OW291"
"2023-04-21 02:00",7.47372857564511,"Approved","OW291"
"2023-04-21 03:00",7.46673772070315,"Approved","OW291"
"2023-04-21 04:00",7.46374686576119,"Approved","OW291"
"2023-04-21 05:00",7.45775601081923,"Approved","OW291"
"2023-04-21 06:00",7.44776515587727,"Approved","OW291"
"2023-04-21 07:00",7.44077430093531,"Approved","OW291"
"2023-04-21 08:00",7.43278344599335,"Approved","OW291"
"2023-04-21 09:00",7.42579259105139,"Approved","OW291"
"2023-04-21 10:00",7.41780173610943,"Approved","OW291"
"2023-04-21 11:00",7.40981088116747,"Approved","OW291"
"2023-04-21 12:00",7.40482002622551,"Approved","OW291"
"2023-04-21 13:00",7.40382917128355,"Approved","OW291"
"2023-04-21 14:00",7.40183831634159,"Approved","OW291"
"2023-04-21 15:00",7.40184746139963,"Approved","OW291"
"2023-04-21 16:00",7.40085660645767,"Approved","OW291"
"2023-04-21 17:00",7.39886575151571,"Approved","OW291"
"2023-04-21 18:00",7.39587489657375,"Approved","OW291"
"2023-04-21 19:00",7.39488404163179,"Approved","OW291"
"2023-04-21 20:00",7.38989318668983,"Approved","OW291"
"2023-04-21 21:00",7.38190233174787,"Approved","OW291"
"2023-04-21 22:00",7.37191147680591,"Approved","OW291"
"2023-04-21 23:00",7.36192062186395,"Approved","OW291"
"2023-04-22 00:00",7.35492976692199,"Approved","OW291"
"2023-04-22 01:00",7.35193891198003,"Approved","OW291"
"2023-04-22 02:00",7.35094805703807,"Approved","OW291"
"2023-04-22 03:00",7.3469572020961,"Approved","OW291"
"2023-04-22 04:00",7.34396634715415,"Approved","OW291"
"2023-04-22 05:00",7.34197549221218,"Approved","OW291"
"2023-04-22 06:00",7.33498463727022,"Approved","OW291"
"2023-04-22 07:00",7.32899378232826,"Approved","OW291"
"2023-04-22 08:00",7.3250029273863,"Approved","OW291"
"2023-04-22 09:00",7.32001207244434,"Approved","OW291"
"2023-04-22 10:00",7.31202121750238,"Approved","OW291"
"2023-04-22 11:00",7.30503036256042,"Approved","OW291"
"2023-04-22 12:00",7.29803950761846,"Approved","OW291"
"2023-04-22 13:00",7.2940486526765,"Approved","OW291"
"2023-04-22 14:00",7.29405779773454,"Approved","OW291"
"2023-04-22 15:00",7.29006694279258,"Approved","OW291"
"2023-04-22 16:00",7.28607608785062,"Approved","OW291"
"2023-04-22 17:00",7.28108523290866,"Approved","OW291"
"2023-04-22 18:00",7.2750943779667,"Approved","OW291"
"2023-04-22 19:00",7.26610352302474,"Approved","OW291"
"2023-04-22 20:00",7.26011266808278,"Approved","OW291"
"2023-04-22 21:00",7.25212181314082,"Approved","OW291"
"2023-04-22 22:00",7.24313095819886,"Approved","OW291"
"2023-04-22 23:00",7.2321401032569,"Approved","OW291"
"2023-04-23 00:00",7.22414924831494,"Approved","OW291"
"2023-04-23 01:00",7.21815839337298,"Approved","OW291"
"2023-04-23 02:00",7.20816753843102,"Approved","OW291"
"2023-04-23 03:00",7.20217668348906,"Approved","OW291"
"2023-04-23 04:00",7.2001858285471,"Approved","OW291"
"2023-04-23 05:00",7.19519497360514,"Approved","OW291"
"2023-04-23 06:00",7.18720411866318,"Approved","OW291"
"2023-04-23 07:00",7.17921326372122,"Approved","OW291"
"2023-04-23 08:00",7.17222240877926,"Approved","OW291"
"2023-04-23 09:00",7.1662315538373,"Approved","OW291"
"2023-04-23 10:00",7.15924069889533,"Approved","OW291"
"2023-04-23 11:00",7.15524984395338,"Approved","OW291"
"2023-04-23 12:00",7.15025898901141,"Approved","OW291"
"2023-04-23 13:00",7.15026813406945,"Approved","OW291"
"2023-04-23 14:00",7.14827727912749,"Approved","OW291"
"2023-04-23 15:00",7.14628642418553,"Approved","OW291"
"2023-04-23 16:00",7.13829556924357,"Approved","OW291"
"2023-04-23 17:00",7.13130471430161,"Approved","OW291"
"2023-04-23 18:00",7.12531385935965,"Approved","OW291"
"2023-04-23 19:00",7.11532300441769,"Approved","OW291"
"2023-04-23 20:00",7.11033214947573,"Approved","OW291"
"2023-04-23 21:00",7.10334129453377,"Approved","OW291"
"2023-04-23 22:00",7.09435043959181,"Approved","OW291"
"2023-04-23 23:00",7.08935958464985,"Approved","OW291"
"2023-04-24 00:00",7.08736872970789,"Approved","OW291"
"2023-04-24 01:00",7.08337787476593,"Approved","OW291"
"2023-04-24 02:00",7.07538701982397,"Approved","OW291"
"2023-04-24 03:00",7.07339616488201,"Approved","OW291"
"2023-04-24 04:00",7.07140530994005,"Approved","OW291"
"2023-04-24 05:00",7.06841445499809,"Approved","OW291"
"2023-04-24 06:00",7.06342360005613,"Approved","OW291"
"2023-04-24 07:00",7.05943274511417,"Approved","OW291"
"2023-04-24 08:00",7.05644189017221,"Approved","OW291"
"2023-04-24 09:00",7.05245103523025,"Approved","OW291"
"2023-04-24 10:00",7.04546018028829,"Approved","OW291"
"2023-04-24 11:00",7.04446932534633,"Approved","OW291"
"2023-04-24 12:00",7.04247847040437,"Approved","OW291"
"2023-04-24 13:00",7.04548761546241,"Approved","OW291"
"2023-04-24 14:00",7.04549676052045,"Approved","OW291"
"2023-04-24 15:00",7.04750590557849,"Approved","OW291"
"2023-04-24 16:00",7.04951505063653,"Approved","OW291"
"2023-04-24 17:00",7.05152419569457,"Approved","OW291"
"2023-04-24 18:00",7.0535333407526,"Approved","OW291"
"2023-04-24 19:00",7.05554248581064,"Approved","OW291"
"2023-04-24 20:00",7.05255163086868,"Approved","OW291"
"2023-04-24 21:00",7.05456077592672,"Approved","OW291"
"2023-04-24 22:00",7.05156992098476,"Approved","OW291"
"2023-04-24 23:00",7.0495790660428,"Approved","OW291"
"2023-04-25 00:00",7.04558821110084,"Approved","OW291"
"2023-04-25 01:00",7.04559735615888,"Approved","OW291"
"2023-04-25 02:00",7.04560650121692,"Approved","OW291"
"2023-04-25 03:00",7.04861564627496,"Approved","OW291"
"2023-04-25 04:00",7.051624791333,"Approved","OW291"
"2023-04-25 05:00",7.05163393639104,"Approved","OW291"
"2023-04-25 06:00",7.05064308144908,"Approved","OW291"
"2023-04-25 07:00",7.05065222650712,"Approved","OW291"
"2023-04-25 08:00",7.05066137156516,"Approved","OW291"
"2023-04-25 09:00",7.0486705166232,"Approved","OW291"
"2023-04-25 10:00",7.04467966168124,"Approved","OW291"
"2023-04-25 11:00",7.04168880673928,"Approved","OW291"
"2023-04-25 12:00",7.03869795179732,"Approved","OW291"
"2023-04-25 13:00",7.03970709685536,"Approved","OW291"
"2023-04-25 14:00",7.0407162419134,"Approved","OW291"
"2023-04-25 15:00",7.04072538697144,"Approved","OW291"
"2023-04-25 16:00",7.03673453202948,"Approved","OW291"
"2023-04-25 17:00",7.03474367708752,"Approved","OW291"
"2023-04-25 18:00",7.03175282214556,"Approved","OW291"
"2023-04-25 19:00",7.0287619672036,"Approved","OW291"
"2023-04-25 20:00",7.02577111226164,"Approved","OW291"
"2023-04-25 21:00",7.01978025731968,"Approved","OW291"
"2023-04-25 22:00",7.01278940237771,"Approved","OW291"
"2023-04-25 23:00",7.00679854743576,"Approved","OW291"
"2023-04-26 00:00",6.99980769249379,"Approved","OW291"
"2023-04-26 01:00",7.02081683755183,"Approved","OW291"
"2023-04-26 02:00",7.04282598260987,"Approved","OW291"
"2023-04-26 03:00",7.03683512766791,"Approved","OW291"
"2023-04-26 04:00",7.03484427272595,"Approved","OW291"
"2023-04-26 05:00",7.02985341778399,"Approved","OW291"
"2023-04-26 06:00",7.02486256284203,"Approved","OW291"
"2023-04-26 07:00",7.01987170790007,"Approved","OW291"
"2023-04-26 08:00",7.01688085295811,"Approved","OW291"
"2023-04-26 09:00",7.01488999801615,"Approved","OW291"
"2023-04-26 10:00",7.01089914307419,"Approved","OW291"
"2023-04-26 11:00",7.00590828813223,"Approved","OW291"
"2023-04-26 12:00",7.00391743319027,"Approved","OW291"
"2023-04-26 13:00",6.99992657824831,"Approved","OW291"
"2023-04-26 14:00",6.99693572330635,"Approved","OW291"
"2023-04-26 15:00",6.99494486836439,"Approved","OW291"
"2023-04-26 16:00",6.99795401342243,"Approved","OW291"
"2023-04-26 17:00",6.99196315848047,"Approved","OW291"
"2023-04-26 18:00",6.98397230353851,"Approved","OW291"
"2023-04-26 19:00",6.97398144859655,"Approved","OW291"
"2023-04-26 20:00",6.96999059365459,"Approved","OW291"
"2023-04-26 21:00",6.96199973871263,"Approved","OW291"
"2023-04-26 22:00",6.95500888377067,"Approved","OW291"
"2023-04-26 23:00",6.94201802882871,"Approved","OW291"
"2023-04-27 00:00",6.93502717388675,"Approved","OW291"
"2023-04-27 01:00",6.92803631894479,"Approved","OW291"
"2023-04-27 02:00",6.92704546400283,"Approved","OW291"
"2023-04-27 03:00",6.91605460906087,"Approved","OW291"
"2023-04-27 04:00",6.91106375411891,"Approved","OW291"
"2023-04-27 05:00",6.90807289917695,"Approved","OW291"
"2023-04-27 06:00",6.90208204423498,"Approved","OW291"
"2023-04-27 07:00",6.90109118929302,"Approved","OW291"
"2023-04-27 08:00",6.90410033435106,"Approved","OW291"
"2023-04-27 09:00",6.9091094794091,"Approved","OW291"
"2023-04-27 10:00",6.91211862446714,"Approved","OW291"
"2023-04-27 11:00",6.91212776952518,"Approved","OW291"
"2023-04-27 12:00",6.91513691458322,"Approved","OW291"
"2023-04-27 13:00",6.92614605964126,"Approved","OW291"
"2023-04-27 14:00",6.9371552046993,"Approved","OW291"
"2023-04-27 15:00",6.94116434975734,"Approved","OW291"
"2023-04-27 16:00",6.94817349481538,"Approved","OW291"
"2023-04-27 17:00",6.95218263987342,"Approved","OW291"
"2023-04-27 18:00",6.95619178493146,"Approved","OW291"
"2023-04-27 19:00",6.9562009299895,"Approved","OW291"
"2023-04-27 20:00",6.95521007504754,"Approved","OW291"
"2023-04-27 21:00",6.95121922010558,"Approved","OW291"
"2023-04-27 22:00",6.94522836516362,"Approved","OW291"
"2023-04-27 23:00",6.94023751022166,"Approved","OW291"
"2023-04-28 00:00",6.9382466552797,"Approved","OW291"
"2023-04-28 01:00",6.93725580033774,"Approved","OW291"
"2023-04-28 02:00",6.93326494539578,"Approved","OW291"
"2023-04-28 03:00",6.93227409045382,"Approved","OW291"
"2023-04-28 04:00",6.93828323551186,"Approved","OW291"
"2023-04-28 05:00",6.9372923805699,"Approved","OW291"
"2023-04-28 06:00",6.93530152562794,"Approved","OW291"
"2023-04-28 07:00",6.93431067068598,"Approved","OW291"
"2023-04-28 08:00",6.93331981574402,"Approved","OW291"
"2023-04-28 09:00",6.93232896080206,"Approved","OW291"
"2023-04-28 10:00",6.9273381058601,"Approved","OW291"
"2023-04-28 11:00",6.92534725091814,"Approved","OW291"
"2023-04-28 12:00",6.92335639597617,"Approved","OW291"
"2023-04-28 13:00",6.92636554103421,"Approved","OW291"
"2023-04-28 14:00",6.92937468609225,"Approved","OW291"
"2023-04-28 15:00",6.92738383115029,"Approved","OW291"
"2023-04-28 16:00",6.92339297620833,"Approved","OW291"
"2023-04-28 17:00",6.91840212126637,"Approved","OW291"
"2023-04-28 18:00",6.91641126632441,"Approved","OW291"
"2023-04-28 19:00",6.90642041138245,"Approved","OW291"
"2023-04-28 20:00",6.90042955644049,"Approved","OW291"
"2023-04-28 21:00",6.89543870149853,"Approved","OW291"
"2023-04-28 22:00",6.89044784655657,"Approved","OW291"
"2023-04-28 23:00",6.88945699161461,"Approved","OW291"
"2023-04-29 00:00",6.88346613667265,"Approved","OW291"
"2023-04-29 01:00",6.88147528173069,"Approved","OW291"
"2023-04-29 02:00",6.87548442678873,"Approved","OW291"
"2023-04-29 03:00",6.87149357184677,"Approved","OW291"
"2023-04-29 04:00",6.87150271690481,"Approved","OW291"
"2023-04-29 05:00",6.87151186196285,"Approved","OW291"
"2023-04-29 06:00",6.87052100702089,"Approved","OW291"
"2023-04-29 07:00",6.86953015207893,"Approved","OW291"
"2023-04-29 08:00",6.86753929713697,"Approved","OW291"
"2023-04-29 09:00",6.86554844219501,"Approved","OW291"
"2023-04-29 10:00",6.86255758725305,"Approved","OW291"
"2023-04-29 11:00",6.86356673231109,"Approved","OW291"
"2023-04-29 12:00",6.86257587736913,"Approved","OW291"
"2023-04-29 13:00",6.86558502242717,"Approved","OW291"
"2023-04-29 14:00",6.86759416748521,"Approved","OW291"
"2023-04-29 15:00",6.86860331254325,"Approved","OW291"
"2023-04-29 16:00",6.86661245760129,"Approved","OW291"
"2023-04-29 17:00",6.86062160265933,"Approved","OW291"
"2023-04-29 18:00",6.85763074771736,"Approved","OW291"
"2023-04-29 19:00",6.8516398927754,"Approved","OW291"
"2023-04-29 20:00",6.84564903783344,"Approved","OW291"
"2023-04-29 21:00",6.83865818289148,"Approved","OW291"
"2023-04-29 22:00",6.83166732794952,"Approved","OW291"
"2023-04-29 23:00",6.82867647300756,"Approved","OW291"
"2023-04-30 00:00",6.8506856180656,"Approved","OW291"
"2023-04-30 01:00",6.84969476312364,"Approved","OW291"
"2023-04-30 02:00",6.83970390818168,"Approved","OW291"
"2023-04-30 03:00",6.85171305323972,"Approved","OW291"
"2023-04-30 04:00",6.85072219829776,"Approved","OW291"
"2023-04-30 05:00",6.8487313433558,"Approved","OW291"
"2023-04-30 06:00",6.84574048841384,"Approved","OW291"
"2023-04-30 07:00",6.84174963347188,"Approved","OW291"
"2023-04-30 08:00",6.83875877852992,"Approved","OW291"
"2023-04-30 09:00",6.83576792358796,"Approved","OW291"
"2023-04-30 10:00",6.833777068646,"Approved","OW291"
"2023-04-30 11:00",6.83678621370404,"Approved","OW291"
"2023-04-30 12:00",6.84179535876208,"Approved","OW291"
"2023-04-30 13:00",6.84580450382012,"Approved","OW291"
"2023-04-30 14:00",6.85081364887816,"Approved","OW291"
"2023-04-30 15:00",6.8538227939362,"Approved","OW291"
"2023-04-30 16:00",6.84283193899424,"Approved","OW291"
"2023-04-30 17:00",6.83284108405228,"Approved","OW291"
"2023-04-30 18:00",6.82585022911032,"Approved","OW291"
"2023-04-30 19:00",6.81885937416836,"Approved","OW291"
"2023-04-30 20:00",6.8098685192264,"Approved","OW291"
"2023-04-30 21:00",6.79787766428444,"Approved","OW291"
"2023-04-30 22:00",6.80088680934248,"Approved","OW291"
"2023-04-30 23:00",6.80289595440052,"Approved","OW291"
"2023-05-01 00:00",6.80290509945856,"Approved","OW291"
"2023-05-01 01:00",6.79891424451659,"Approved","OW291"
"2023-05-01 02:00",6.79492338957463,"Approved","OW291"
"2023-05-01 03:00",6.79993253463267,"Approved","OW291"
"2023-05-01 04:00",6.80094167969071,"Approved","OW291"
"2023-05-01 05:00",6.80495082474875,"Approved","OW291"
"2023-05-01 06:00",6.80795996980679,"Approved","OW291"
"2023-05-01 07:00",6.80796911486483,"Approved","OW291"
"2023-05-01 08:00",6.80597825992287,"Approved","OW291"
"2023-05-01 09:00",6.80498740498091,"Approved","OW291"
"2023-05-01 10:00",6.80299655003895,"Approved","OW291"
"2023-05-01 11:00",6.80400569509699,"Approved","OW291"
"2023-05-01 12:00",6.80301484015503,"Approved","OW291"
"2023-05-01 13:00",6.80402398521307,"Approved","OW291"
"2023-05-01 14:00",6.80903313027111,"Approved","OW291"
"2023-05-01 15:00",6.81104227532915,"Approved","OW291"
"2023-05-01 16:00",6.81505142038719,"Approved","OW291"
"2023-05-01 17:00",6.81606056544523,"Approved","OW291"
"2023-05-01 18:00",6.81106971050327,"Approved","OW291"
"2023-05-01 19:00",6.81207885556131,"Approved","OW291"
"2023-05-01 20:00",6.81408800061935,"Approved","OW291"
"2023-05-01 21:00",6.81509714567739,"Approved","OW291"
"2023-05-01 22:00",6.81710629073543,"Approved","OW291"
"2023-05-01 23:00",6.82211543579347,"Approved","OW291"
"2023-05-02 00:00",6.81812458085151,"Approved","OW291"
"2023-05-02 01:00",6.81313372590955,"Approved","OW291"
"2023-05-02 02:00",6.83114287096759,"Approved","OW291"
"2023-05-02 03:00",6.83415201602563,"Approved","OW291"
"2023-05-02 04:00",6.83816116108367,"Approved","OW291"
"2023-05-02 05:00",6.84217030614171,"Approved","OW291"
"2023-05-02 06:00",6.84417945119974,"Approved","OW291"
"2023-05-02 07:00",6.84918859625778,"Approved","OW291"
"2023-05-02 08:00",6.85119774131582,"Approved","OW291"
"2023-05-02 09:00",6.85320688637386,"Approved","OW291"
"2023-05-02 10:00",6.8522160314319,"Approved","OW291"
"2023-05-02 11:00",6.85522517648994,"Approved","OW291"
"2023-05-02 12:00",6.85923432154798,"Approved","OW291"
"2023-05-02 13:00",6.86624346660602,"Approved","OW291"
"2023-05-02 14:00",6.87325261166406,"Approved","OW291"
"2023-05-02 15:00",6.8782617567221,"Approved","OW291"
"2023-05-02 16:00",6.87427090178014,"Approved","OW291"
"2023-05-02 17:00",6.86728004683818,"Approved","OW291"
"2023-05-02 18:00",6.86228919189622,"Approved","OW291"
"2023-05-02 19:00",6.85629833695426,"Approved","OW291"
"2023-05-02 20:00",6.8503074820123,"Approved","OW291"
"2023-05-02 21:00",6.84431662707034,"Approved","OW291"
"2023-05-02 22:00",6.83832577212838,"Approved","OW291"
"2023-05-02 23:00",6.83333491718642,"Approved","OW291"
"2023-05-03 00:00",6.82834406224446,"Approved","OW291"
"2023-05-03 01:00",6.8303532073025,"Approved","OW291"
"2023-05-03 02:00",6.82936235236054,"Approved","OW291"
"2023-05-03 03:00",6.82737149741858,"Approved","OW291"
"2023-05-03 04:00",6.83238064247662,"Approved","OW291"
"2023-05-03 05:00",6.83838978753466,"Approved","OW291"
"2023-05-03 06:00",6.8423989325927,"Approved","OW291"
"2023-05-03 07:00",6.84540807765074,"Approved","OW291"
"2023-05-03 08:00",6.84841722270878,"Approved","OW291"
"2023-05-03 09:00",6.84742636776682,"Approved","OW291"
"2023-05-03 10:00",6.84743551282486,"Approved","OW291"
"2023-05-03 11:00",6.85144465788289,"Approved","OW291"
"2023-05-03 12:00",6.85445380294093,"Approved","OW291"
"2023-05-03 13:00",6.86046294799897,"Approved","OW291"
"2023-05-03 14:00",6.86647209305701,"Approved","OW291"
"2023-05-03 15:00",6.86548123811505,"Approved","OW291"
"2023-05-03 16:00",6.86349038317309,"Approved","OW291"
"2023-05-03 17:00",6.85549952823113,"Approved","OW291"
"2023-05-03 18:00",6.85350867328917,"Approved","OW291"
"2023-05-03 19:00",6.85451781834721,"Approved","OW291"
"2023-05-03 20:00",6.85452696340525,"Approved","OW291"
"2023-05-03 21:00",6.84453610846329,"Approved","OW291"
"2023-05-03 22:00",6.83654525352133,"Approved","OW291"
"2023-05-03 23:00",6.83355439857937,"Approved","OW291"
"2023-05-04 00:00",6.83256354363741,"Approved","OW291"
"2023-05-04 01:00",6.82957268869545,"Approved","OW291"
"2023-05-04 02:00",6.82858183375349,"Approved","OW291"
"2023-05-04 03:00",6.83159097881153,"Approved","OW291"
"2023-05-04 04:00",6.83560012386957,"Approved","OW291"
"2023-05-04 05:00",6.83860926892761,"Approved","OW291"
"2023-05-04 06:00",6.83861841398565,"Approved","OW291"
"2023-05-04 07:00",6.83762755904369,"Approved","OW291"
"2023-05-04 08:00",6.83663670410173,"Approved","OW291"
"2023-05-04 09:00",6.83464584915977,"Approved","OW291"
"2023-05-04 10:00",6.83465499421781,"Approved","OW291"
"2023-05-04 11:00",6.83466413927585,"Approved","OW291"
"2023-05-04 12:00",6.83267328433389,"Approved","OW291"
"2023-05-04 13:00",6.83568242939193,"Approved","OW291"
"2023-05-04 14:00",6.83669157444997,"Approved","OW291"
"2023-05-04 15:00",6.83870071950801,"Approved","OW291"
"2023-05-04 16:00",6.84270986456605,"Approved","OW291"
"2023-05-04 17:00",6.84371900962408,"Approved","OW291"
"2023-05-04 18:00",6.84072815468212,"Approved","OW291"
"2023-05-04 19:00",6.83673729974016,"Approved","OW291"
"2023-05-04 20:00",6.8287464447982,"Approved","OW291"
"2023-05-04 21:00",6.81775558985624,"Approved","OW291"
"2023-05-04 22:00",6.80676473491428,"Approved","OW291"
"2023-05-04 23:00",6.79577387997232,"Approved","OW291"
"2023-05-05 00:00",6.80278302503036,"Approved","OW291"
"2023-05-05 01:00",6.8307921700884,"Approved","OW291"
"2023-05-05 02:00",6.83380131514644,"Approved","OW291"
"2023-05-05 03:00",6.83781046020448,"Approved","OW291"
"2023-05-05 04:00",6.84181960526252,"Approved","OW291"
"2023-05-05 05:00",6.84482875032056,"Approved","OW291"
"2023-05-05 06:00",6.8448378953786,"Approved","OW291"
"2023-05-05 07:00",6.84384704043664,"Approved","OW291"
"2023-05-05 08:00",6.83985618549468,"Approved","OW291"
"2023-05-05 09:00",6.83786533055272,"Approved","OW291"
"2023-05-05 10:00",6.83687447561076,"Approved","OW291"
"2023-05-05 11:00",6.8358836206688,"Approved","OW291"
"2023-05-05 12:00",6.83789276572684,"Approved","OW291"
"2023-05-05 13:00",6.83990191078488,"Approved","OW291"
"2023-05-05 14:00",6.84391105584292,"Approved","OW291"
"2023-05-05 15:00",6.84692020090096,"Approved","OW291"
"2023-05-05 16:00",6.847929345959,"Approved","OW291"
"2023-05-05 17:00",6.84293849101704,"Approved","OW291"
"2023-05-05 18:00",6.84694763607508,"Approved","OW291"
"2023-05-05 19:00",6.85095678113312,"Approved","OW291"
"2023-05-05 20:00",6.85396592619116,"Approved","OW291"
"2023-05-05 21:00",6.8499750712492,"Approved","OW291"
"2023-05-05 22:00",6.84298421630723,"Approved","OW291"
"2023-05-05 23:00",6.83399336136527,"Approved","OW291"
"2023-05-06 00:00",6.83300250642331,"Approved","OW291"
"2023-05-06 01:00",6.83201165148135,"Approved","OW291"
"2023-05-06 02:00",6.83202079653939,"Approved","OW291"
"2023-05-06 03:00",6.83502994159743,"Approved","OW291"
"2023-05-06 04:00",6.84703908665547,"Approved","OW291"
"2023-05-06 05:00",6.85204823171351,"Approved","OW291"
"2023-05-06 06:00",6.85405737677155,"Approved","OW291"
"2023-05-06 07:00",6.85606652182959,"Approved","OW291"
"2023-05-06 08:00",6.85507566688763,"Approved","OW291"
"2023-05-06 09:00",6.85408481194567,"Approved","OW291"
"2023-05-06 10:00",6.85409395700371,"Approved","OW291"
"2023-05-06 11:00",6.85110310206175,"Approved","OW291"
"2023-05-06 12:00",6.85011224711979,"Approved","OW291"
"2023-05-06 13:00",6.85212139217783,"Approved","OW291"
"2023-05-06 14:00",6.85913053723587,"Approved","OW291"
"2023-05-06 15:00",6.86613968229391,"Approved","OW291"
"2023-05-06 16:00",6.86914882735195,"Approved","OW291"
"2023-05-06 17:00",6.87515797240999,"Approved","OW291"
"2023-05-06 18:00",6.87916711746803,"Approved","OW291"
"2023-05-06 19:00",6.88017626252607,"Approved","OW291"
"2023-05-06 20:00",6.87918540758411,"Approved","OW291"
"2023-05-06 21:00",6.87719455264215,"Approved","OW291"
"2023-05-06 22:00",6.87420369770019,"Approved","OW291"
"2023-05-06 23:00",6.87221284275823,"Approved","OW291"
"2023-05-07 00:00",6.88222198781627,"Approved","OW291"
"2023-05-07 01:00",6.88523113287431,"Approved","OW291"
"2023-05-07 02:00",6.88424027793235,"Approved","OW291"
"2023-05-07 03:00",6.88724942299039,"Approved","OW291"
"2023-05-07 04:00",6.89125856804842,"Approved","OW291"
"2023-05-07 05:00",6.89326771310646,"Approved","OW291"
"2023-05-07 06:00",6.8922768581645,"Approved","OW291"
"2023-05-07 07:00",6.89328600322254,"Approved","OW291"
"2023-05-07 08:00",6.89229514828058,"Approved","OW291"
"2023-05-07 09:00",6.89130429333862,"Approved","OW291"
"2023-05-07 10:00",6.89031343839666,"Approved","OW291"
"2023-05-07 11:00",6.8913225834547,"Approved","OW291"
"2023-05-07 12:00",6.88933172851274,"Approved","OW291"
"2023-05-07 13:00",6.89034087357078,"Approved","OW291"
"2023-05-07 14:00",6.89235001862882,"Approved","OW291"
"2023-05-07 15:00",6.89935916368686,"Approved","OW291"
"2023-05-07 16:00",6.9033683087449,"Approved","OW291"
"2023-05-07 17:00",6.90537745380294,"Approved","OW291"
"2023-05-07 18:00",6.90538659886098,"Approved","OW291"
"2023-05-07 19:00",6.90439574391902,"Approved","OW291"
"2023-05-07 20:00",6.90640488897706,"Approved","OW291"
"2023-05-07 21:00",6.9104140340351,"Approved","OW291"
"2023-05-07 22:00",6.91042317909314,"Approved","OW291"
"2023-05-07 23:00",6.92143232415118,"Approved","OW291"
"2023-05-08 00:00",6.91844146920922,"Approved","OW291"
"2023-05-08 01:00",6.91545061426726,"Approved","OW291"
"2023-05-08 02:00",6.9114597593253,"Approved","OW291"
"2023-05-08 03:00",6.91046890438334,"Approved","OW291"
"2023-05-08 04:00",6.91247804944138,"Approved","OW291"
"2023-05-08 05:00",6.91648719449942,"Approved","OW291"
"2023-05-08 06:00",6.91749633955746,"Approved","OW291"
"2023-05-08 07:00",6.9185054846155,"Approved","OW291"
"2023-05-08 08:00",6.91851462967354,"Approved","OW291"
"2023-05-08 09:00",6.91752377473157,"Approved","OW291"
"2023-05-08 10:00",6.91753291978961,"Approved","OW291"
"2023-05-08 11:00",6.91454206484765,"Approved","OW291"
"2023-05-08 12:00",6.91355120990569,"Approved","OW291"
"2023-05-08 13:00",6.91556035496373,"Approved","OW291"
"2023-05-08 14:00",6.91956950002177,"Approved","OW291"
"2023-05-08 15:00",6.92557864507981,"Approved","OW291"
"2023-05-08 16:00",6.92758779013785,"Approved","OW291"
"2023-05-08 17:00",6.92959693519589,"Approved","OW291"
"2023-05-08 18:00",6.93560608025393,"Approved","OW291"
"2023-05-08 19:00",6.93661522531197,"Approved","OW291"